TimePST,TemperatureF,Dew PointF,Humidity,Sea Level PressureIn,VisibilityMPH,Wind Direction,Wind SpeedMPH,Gust SpeedMPH,PrecipitationIn,Events,Conditions,WindDirDegrees,DateUTC
12:56 AM,42.1,12.9,31,30.25,10.0,SW,8.1,-,N/A,,Clear,220,2013-02-25 08:56:00
1:56 AM,39.9,8.1,27,30.26,10.0,West,11.5,-,N/A,,Clear,280,2013-02-25 09:56:00
2:56 AM,39.9,10.0,29,30.25,10.0,WSW,8.1,-,N/A,,Clear,250,2013-02-25 10:56:00
3:56 AM,39.0,12.9,34,30.24,10.0,West,4.6,-,N/A,,Clear,260,2013-02-25 11:56:00
4:56 AM,37.0,12.0,36,30.26,10.0,West,9.2,-,N/A,,Clear,270,2013-02-25 12:56:00
5:56 AM,37.0,10.9,34,30.27,10.0,Calm,Calm,-,N/A,,Clear,0,2013-02-25 13:56:00
6:56 AM,39.9,10.9,31,30.28,10.0,West,8.1,-,N/A,,Clear,270,2013-02-25 14:56:00
7:56 AM,48.0,12.9,24,30.29,10.0,WNW,5.8,-,N/A,,Clear,290,2013-02-25 15:56:00
8:56 AM,55.0,15.1,21,30.28,10.0,South,4.6,-,N/A,,Clear,190,2013-02-25 16:56:00
9:56 AM,61.0,17.1,18,30.27,10.0,ENE,6.9,-,N/A,,Clear,60,2013-02-25 17:56:00
10:56 AM,64.0,14.0,14,30.27,10.0,NE,6.9,-,N/A,,Clear,40,2013-02-25 18:56:00
11:56 AM,66.0,14.0,13,30.23,10.0,Calm,Calm,-,N/A,,Clear,0,2013-02-25 19:56:00
12:56 PM,66.0,12.9,13,30.20,10.0,Variable,3.5,-,N/A,,Clear,0,2013-02-25 20:56:00
1:56 PM,66.9,10.9,11,30.16,10.0,East,5.8,-,N/A,,Clear,100,2013-02-25 21:56:00
2:56 PM,68.0,12.0,11,30.14,10.0,Calm,Calm,-,N/A,,Clear,0,2013-02-25 22:56:00
3:56 PM,66.9,12.9,12,30.12,10.0,East,3.5,-,N/A,,Clear,100,2013-02-25 23:56:00
4:56 PM,66.0,15.1,14,30.09,10.0,SE,4.6,-,N/A,,Clear,140,2013-02-26 00:56:00
5:56 PM,62.1,17.1,18,30.07,10.0,SSE,4.6,-,N/A,,Clear,160,2013-02-26 01:56:00
6:56 PM,59.0,17.1,20,30.08,10.0,South,3.5,-,N/A,,Clear,170,2013-02-26 02:56:00
7:56 PM,55.0,15.1,21,30.09,10.0,SSE,5.8,-,N/A,,Clear,160,2013-02-26 03:56:00
8:56 PM,52.0,18.0,26,30.08,10.0,South,5.8,-,N/A,,Clear,170,2013-02-26 04:56:00
9:56 PM,46.9,21.0,36,30.09,10.0,South,5.8,-,N/A,,Clear,180,2013-02-26 05:56:00
10:56 PM,52.0,16.0,24,30.07,10.0,WSW,5.8,-,N/A,,Clear,240,2013-02-26 06:56:00
11:56 PM,48.0,21.0,34,30.06,10.0,SSW,3.5,-,N/A,,Clear,210,2013-02-26 07:56:00